Location: Newark
(48.5667°N, 7.8167°E)
Time: 22:43:51
(UTC+00:00)

ISS - Pass Details

Date: 27 September 2021
Orbit: 417 x 423 km, 51.6° (Epoch: 17 October)

Event Time Altitude Azimuth Distance (km) Brightness Sun altitude
Rises 19:45:30 0° 291° (WNW) 2,367 1.4 -24.8°
Reaches altitude 10° 19:47:36 10° 291° (WNW) 1,502 0.1 -25.1°
Enters shadow 19:49:32 32° 291° (WNW) 753 -1.9 -25.4°
